Location: Gu�tanj
(46.5431°N, 14.9692°E)
Time: 20:47:39
(UTC+00:00)

SJ 16-02 - Pass Details

Date: 03 March 2021
Orbit: 605 x 617 km, 75.0° (Epoch: 22 April)

Event Time Altitude Azimuth Distance (km) Brightness Sun altitude
Rises 17:56:28 0° 354° (N) 2,883 4.9 -12.4°
Reaches altitude 10° 17:59:53 10° 22° (NNE) 1,976 3.8 -13.0°
Maximum altitude 18:02:01 13° 51° (NE) 1,769 3.3 -13.3°
Enters shadow 18:02:13 13° 54° (NE) 1,771 3.3 -13.4°
